VE1AIC-4 Weather Reports


time (UTC)temp
C
wind
direction
speed
KPH
gust
KPH
rain 1hr
cm
rain 24hr
cm
rain mn
cm
humidity
%
barometer
mb
20260507201039 11 214 1.6 8.0 0.00 0.99 0.99 97 999.3
20260507200018 11 211 1.6 4.8 0.00 0.99 0.99 97 999.6
20260507195029 10 263 1.6 11.3 0.00 0.99 0.99 97 999.4
20260507194100 10 247 1.6 11.3 0.03 0.99 0.99 97 999.3
20260507193020 10 217 3.2 14.5 0.03 0.99 0.99 97 999.4
20260507192052 10 241 3.2 14.5 0.03 0.99 0.99 97 999.6
20260507191043 10 218 6.4 16.1 0.03 0.99 0.99 97 999.4
20260507190022 11 215 4.8 8.0 0.03 0.99 0.99 97 999.4
20260507185121 11 207 3.2 11.3 0.05 0.99 0.99 97 999.3
20260507184119 11 215 3.2 14.5 0.05 0.97 0.97 97 999.3
20260507183025 10 216 4.8 11.3 0.05 0.97 0.97 97 999.6
20260507182036 10 223 1.6 4.8 0.08 0.97 0.97 97 999.4
20260507181117 10 246 1.6 4.8 0.10 0.97 0.97 97 999.5
20260507180047 10 237 1.6 8.0 0.10 0.97 0.97 97 999.0
20260507175039 10 230 6.4 16.1 0.10 0.94 0.94 97 1000.2
20260507174039 10 179 19.3 33.8 0.10 0.91 0.91 97 1000.1
20260507173029 10 174 20.9 33.8 0.13 0.91 0.91 97 999.1
20260507172039 10 167 11.3 16.1 0.15 0.89 0.89 97 998.8
20260507171020 10 161 12.9 22.5 0.18 0.86 0.86 97 998.7
20260507170031 10 176 14.5 22.5 0.23 0.86 0.86 97 999.8
20260507165121 10 176 14.5 22.5 0.28 0.84 0.84 97 999.9
20260507164021 10 178 14.5 19.3 0.33 0.81 0.81 97 999.9
20260507163053 11 187 14.5 22.5 0.38 0.79 0.79 97 1000.1
20260507162119 11 169 14.5 24.1 0.41 0.74 0.74 97 1000.2
20260507161055 11 185 9.7 16.1 0.38 0.69 0.69 97 1000.3
20260507160125 11 183 9.7 16.1 0.41 0.64 0.64 97 1000.1
20260507155045 11 186 14.5 22.5 0.38 0.56 0.56 96 1000.4
20260507154046 11 182 14.5 24.1 0.36 0.48 0.48 96 1000.6
20260507153039 11 190 12.9 19.3 0.36 0.41 0.41 96 1001.0
20260507152016 11 206 11.3 22.5 0.28 0.33 0.33 95 1001.3
20260507151047 11 199 12.9 24.1 0.25 0.30 0.30 95 1001.2
20260507150141 11 183 17.7 33.8 0.18 0.23 0.23 95 1001.6
20260507145018 11 179 12.9 22.5 0.13 0.18 0.18 94 1001.6
20260507144133 12 192 16.1 24.1 0.08 0.13 0.13 93 1001.3
20260507143042 12 186 14.5 22.5 0.00 0.05 0.05 93 1001.4
20260507142020 12 188 22.5 38.6 0.00 0.05 0.05 92 1001.2
20260507141032 12 170 22.5 33.8 0.00 0.05 0.05 92 1001.2
20260507140042 12 184 22.5 33.8 0.00 0.05 0.05 92 1001.3
20260507135043 12 171 22.5 33.8 0.00 0.05 0.05 92 1001.1
20260507134034 12 185 29.0 46.7 0.00 0.05 0.05 92 1001.5
20260507133044 12 175 30.6 43.5 0.00 0.05 0.05 92 1001.8
20260507132024 12 193 29.0 43.5 0.00 0.05 0.05 92 1001.7
20260507131106 12 189 33.8 54.7 0.00 0.05 0.05 92 1001.6
20260507130046 12 180 32.2 49.9 0.00 0.05 0.05 93 1001.8
20260507125030 11 179 38.6 57.9 0.00 0.05 0.05 93 1001.6
20260507124117 11 181 27.4 43.5 0.00 0.05 0.05 93 1001.9
20260507123017 11 181 30.6 49.9 0.00 0.05 0.05 93 1002.2
20260507122032 11 183 40.2 49.9 0.00 0.05 0.05 93 1001.8
20260507121039 11 197 38.6 57.9 0.00 0.05 0.05 93 1002.0
20260507120019 11 179 43.5 57.9 0.00 0.05 0.05 93 1001.4
20260507115036 11 182 49.9 62.8 0.00 0.05 0.05 92 1001.6
20260507114041 11 191 51.5 74.0 0.03 0.05 0.05 92 1001.9
20260507113023 11 180 49.9 66.0 0.03 0.05 0.05 92 1002.1
20260507112124 11 182 53.1 69.2 0.03 0.05 0.05 92 1002.1
20260507111048 11 184 53.1 66.0 0.03 0.05 0.05 92 1002.0
20260507110124 11 184 53.1 74.0 0.03 0.05 0.05 92 1002.1
20260507105034 10 188 46.7 72.4 0.03 0.05 0.05 92 1002.5
20260507104046 10 187 40.2 51.5 0.00 0.03 0.03 92 1002.2
20260507103026 10 186 41.8 57.9 0.00 0.03 0.03 91 1002.3
20260507102037 10 183 35.4 51.5 0.00 0.03 0.03 90 1002.5
20260507101017 11 183 35.4 46.7 0.00 0.03 0.03 89 1002.6
20260507100028 11 190 37.0 46.7 0.00 0.03 0.03 88 1002.7
20260507095104 11 178 41.8 49.9 0.00 0.03 0.03 88 1002.8
20260507094049 11 187 35.4 46.7 0.00 0.03 0.03 88 1003.0
20260507093029 10 181 27.4 33.8 0.00 0.03 0.03 89 1003.0
20260507092041 10 148 24.1 33.8 0.00 0.03 0.03 89 1003.1
20260507091055 10 164 24.1 38.6 0.00 0.03 0.03 89 1003.2
20260507090032 10 165 25.7 38.6 0.00 0.03 0.03 89 1003.5
20260507085042 11 164 24.1 41.8 0.00 0.03 0.03 87 1003.6
20260507084022 11 167 33.8 51.5 0.00 0.03 0.03 87 1003.7
20260507083053 11 169 29.0 41.8 0.00 0.03 0.03 87 1003.7
20260507082054 11 166 37.0 62.8 0.00 0.03 0.03 86 1003.9
20260507081025 11 170 29.0 46.7 0.00 0.03 0.03 87 1004.1
20260507080036 10 169 24.1 41.8 0.00 0.03 0.03 88 1004.4
20260507075047 10 164 22.5 35.4 0.00 0.03 0.03 88 1004.8
20260507074059 10 177 25.7 35.4 0.00 0.03 0.03 88 1005.0
20260507073038 10 168 27.4 38.6 0.03 0.03 0.03 88 1005.0
20260507072017 10 162 22.5 41.8 0.03 0.03 0.03 88 1005.4
20260507071028 11 170 29.0 38.6 0.03 0.03 0.03 87 1005.3
20260507070039 11 168 29.0 38.6 0.03 0.03 0.03 87 1005.3
20260507065019 11 181 35.4 46.7 0.03 0.03 0.03 88 1005.9
20260507064030 10 181 29.0 43.5 0.03 0.03 0.03 89 1005.5
20260507063042 11 181 35.4 43.5 0.00 0.00 0.00 86 1006.5
20260507062023 11 179 35.4 46.7 0.00 0.00 0.00 84 1006.4
20260507061033 11 182 41.8 54.7 0.00 0.00 0.00 83 1006.8
20260507060114 11 188 38.6 51.5 0.00 0.00 0.00 83 1006.7
20260507055054 11 177 43.5 57.9 0.00 0.00 0.00 83 1006.8
20260507054125 11 184 41.8 54.7 0.00 0.00 0.00 83 1006.9
20260507053046 11 183 40.2 54.7 0.00 0.00 0.00 84 1007.5
20260507052048 11 178 37.0 51.5 0.00 0.00 0.00 84 1007.6
20260507051044 11 187 32.2 41.8 0.00 0.00 0.00 85 1007.2
20260507050047 11 187 32.2 43.5 0.00 0.00 0.00 85 1008.0
20260507045028 11 180 32.2 46.7 0.00 0.00 0.00 86 1008.2
20260507044038 11 176 35.4 49.9 0.00 0.00 0.00 85 1008.4
20260507043019 11 181 33.8 49.9 0.00 0.00 0.00 86 1008.8
20260507042029 11 171 33.8 46.7 0.00 0.00 0.00 85 1008.5
20260507041018 11 181 35.4 46.7 0.00 0.00 0.00 84 1009.1
20260507040021 12 173 41.8 57.9 0.00 0.00 0.00 83 1008.9
20260507035051 11 192 38.6 51.5 0.00 0.00 0.00 84 1008.9
20260507034044 11 185 35.4 57.9 0.00 0.00 0.00 85 1009.0
20260507033023 11 177 35.4 51.5 0.00 0.00 0.00 84 1009.1
20260507032106 12 181 37.0 46.7 0.00 0.00 0.00 84 1009.4
20260507031044 12 183 41.8 57.9 0.00 0.00 0.00 83 1009.7
20260507030158 12 180 38.6 57.9 0.00 0.00 0.00 83 1009.6
20260507025036 13 182 45.1 66.0 0.00 0.00 0.00 82 1009.9
20260507024127 13 180 48.3 72.4 0.00 0.00 0.00 82 1010.2
20260507023027 12 192 45.1 66.0 0.00 0.00 0.00 83 1010.5
20260507022037 12 196 40.2 57.9 0.00 0.00 0.00 83 1010.3
20260507021017 12 185 40.2 61.2 0.00 0.00 0.00 83 1010.6
20260507020028 13 183 38.6 51.5 0.00 0.00 0.00 83 1010.8
20260507015039 13 179 41.8 57.9 0.00 0.00 0.00 82 1010.9
20260507014019 13 190 45.1 57.9 0.00 0.00 0.00 82 1011.0
20260507013033 13 190 48.3 61.2 0.00 0.00 0.00 81 1011.0
20260507012042 14 189 49.9 72.4 0.00 0.00 0.00 81 1011.1
20260507011023 14 171 48.3 72.4 0.00 0.00 0.00 80 1011.2
20260507010032 14 188 48.3 69.2 0.00 0.00 0.00 80 1011.4
20260507005043 15 185 49.9 62.8 0.00 0.00 0.00 79 1011.4
20260507004023 15 182 51.5 66.0 0.00 0.00 0.00 80 1011.5
20260507003055 15 182 49.9 72.4 0.00 0.00 0.00 80 1011.4
20260507002045 15 181 51.5 69.2 0.00 0.00 0.00 80 1011.3
20260507001025 15 188 49.9 69.2 0.00 0.00 0.00 79 1011.2
20260507000159 14 184 53.1 69.2 0.00 0.00 0.00 80 1011.1
20260506235017 15 186 53.1 74.0 0.00 0.00 0.00 79 1011.0
20260506234028 14 182 51.5 72.4 0.00 0.00 0.00 80 1010.8
20260506233038 14 197 49.9 69.2 0.00 0.00 0.00 80 1010.7
20260506232018 14 182 53.1 66.0 0.00 0.00 0.00 79 1010.9
20260506231029 14 185 51.5 69.2 0.00 0.00 0.00 78 1010.8
20260506230041 15 180 51.5 62.8 0.00 0.00 0.00 78 1010.8
20260506225021 15 190 49.9 66.0 0.00 0.00 0.00 77 1010.6
20260506224033 15 184 54.7 69.2 0.00 0.00 0.00 76 1010.7
20260506223103 16 185 53.1 69.2 0.00 0.00 0.00 75 1010.7
20260506222028 15 185 48.3 74.0 0.00 0.00 0.00 76 1010.7
20260506221033 15 174 51.5 69.2 0.00 0.00 0.00 75 1010.5
20260506220044 15 181 49.9 66.0 0.00 0.00 0.00 74 1010.6
20260506215025 16 181 51.5 66.0 0.00 0.00 0.00 73 1010.5
20260506214036 16 186 53.1 77.2 0.00 0.00 0.00 72 1010.4
20260506213047 16 180 51.5 66.0 0.00 0.00 0.00 72 1010.2
20260506212027 16 189 53.1 74.0 0.00 0.00 0.00 72 1010.1
20260506211037 15 189 49.9 66.0 0.00 0.00 0.00 73 1010.0
20260506210017 16 186 53.1 66.0 0.00 0.00 0.00 72 1010.0
20260506205028 15 183 51.5 69.2 0.00 0.00 0.00 73 1009.9
20260506204040 16 190 46.7 66.0 0.00 0.00 0.00 73 1010.0
20260506203040 15 182 43.5 57.9 0.00 0.00 0.00 74 1009.9
20260506202031 15 181 37.0 51.5 0.00 0.00 0.00 74 1009.9